Temperature
16 16 16 16 16 16 15 15 15 15 15 15 15 14 14 14 14 14 14 13 13 13 12 12 12 12 12 12 12 12 12 12 12 12 12 12 12 11 11 11 11 11 11
16 16 16 15 15 15 15 15 14 14 14 14 14 14 14 14 14 13 13 13 13 12 12 12 11 11 11 11 12 12 12 12 12 12 12 11 11 11 11 11 11 11 11
15 15 15 15 15 14 14 14 14 14 14 14 13 13 13 13 13 13 13 12 12 12 12 12 11 11 11 11 11 11 11 11 11 11 11 11 11 11 11 10 10 10 10
15 15 15 15 14 14 13 13 13 13 13 13 13 13 12 12 12 12 12 12 12 12 12 11 11 11 11 10 10 10 10 10 10 10 10 10 10 10 10 10 10 10 10
14 14 14 14 14 13 13 13 13 13 13 12 12 12 12 12 12 12 12 12 12 12 12 11 11 11 11 10 10 10 9 10 10 10 10 10 10 9 9 9 9 9 9
14 14 14 14 13 13 13 13 13 13 12 12 12 12 12 12 12 12 12 12 12 12 12 12 11 11 11 10 10 10 9 9 9 9 9 9 9 9 8 8 8 8 8
14 14 14 14 13 13 13 13 13 13 12 12 12 12 12 12 12 12 12 12 12 12 12 12 11 11 11 10 10 10 9 8 8 8 8 8 8 8 8 7 7 7 7
14 14 14 13 13 13 13 13 13 13 12 12 12 11 11 12 12 12 12 12 12 12 12 12 11 11 11 10 10 9 9 8 8 7 7 7 7 7 7 6 6 6 6
14 14 14 13 13 13 13 13 13 12 12 12 12 11 11 11 11 11 11 12 12 12 12 11 11 11 11 10 10 9 9 8 8 7 7 6 6 6 6 6 5 5 5
13 13 13 13 13 13 13 13 12 12 12 11 11 11 11 11 10 10 10 11 11 11 11 11 11 10 10 10 9 9 8 8 7 7 6 6 6 5 5 5 5 5 5
13 13 13 12 12 12 12 12 12 12 11 11 11 10 10 10 10 10 10 10 10 10 10 10 10 10 10 9 9 9 8 7 7 6 6 5 5 5 5 5 5 5 5
12 12 12 12 11 11 11 11 11 11 11 11 10 10 10 10 9 9 9 9 9 9 9 9 9 9 9 9 8 8 7 7 6 6 5 5 5 5 4 4 4 4 4
11 11 10 10 10 10 10 10 10 10 10 10 10 9 9 9 9 9 8 8 8 8 8 8 8 8 8 8 8 7 7 6 6 5 5 5 5 4 4 4 4 4 4
9 9 9 9 9 9 9 9 9 9 9 9 9 9 8 8 8 8 8 8 7 7 7 7 7 7 7 7 7 6 6 6 5 5 4 4 4 4 4 3 3 3 3
8 8 8 8 8 9 9 9 9 9 8 8 8 8 8 8 8 8 7 7 7 6 6 6 6 6 6 6 6 6 5 5 5 4 4 4 3 3 3 3 3 3 3
7 7 7 8 8 8 8 8 8 8 8 8 8 8 8 7 7 7 7 6 6 6 5 5 5 5 5 5 5 5 5 4 4 3 3 3 3 3 2 2 2 2 2
6 7 7 7 7 7 7 7 7 7 7 7 7 7 7 7 7 6 6 6 5 5 5 5 5 4 4 4 4 4 4 3 3 2 2 2 2 2 2 2 1 1 1
6 6 6 6 6 6 6 6 7 7 6 7 7 6 6 6 6 5 5 5 5 5 4 4 4 3 3 3 3 3 2 2 2 2 1 1 1 1 1 1 1 1 1
5 5 5 5 5 5 6 6 6 6 6 5 5 5 5 5 5 4 4 4 4 3 3 3 3 3 3 2 2 2 2 1 1 1 1 1 1 1 1 0 0 0 0
4 4 5 5 5 5 5 5 5 4 4 4 4 4 4 3 3 3 3 3 2 2 2 2 2 2 2 1 1 1 1 1 1 1 0 0 0 0 0 -0 -0 -0 -0
3 3 4 4 4 4 4 4 3 3 3 3 3 3 2 2 2 2 2 2 1 1 1 1 1 1 1 1 0 0 0 -0 -0 -0 -0 -0 -0 -0 -1 -1 -1 -1 -1
2 2 3 3 3 3 3 3 2 2 2 2 2 1 1 1 1 1 1 1 0 0 0 0 0 -0 -0 -1 -1 -1 -1 -1 -1 -1 -1 -1 -1 -1 -2 -2 -2 -2 -2
2 2 2 2 2 2 2 2 2 2 1 1 1 1 0 0 0 -0 -0 -0 -0 -1 -1 -1 -1 -1 -2 -2 -2 -2 -3 -3 -3 -3 -3 -2 -3 -3 -3 -3 -3 -2 -3
1 1 1 1 2 2 2 1 1 1 1 1 0 0 -0 -1 -1 -1 -1 -1 -2 -2 -2 -2 -2 -3 -3 -3 -4 -4 -4 -4 -4 -5 -5 -4 -3 -3 -4 -4 -3 -3 -3
1 1 1 1 1 1 1 1 1 0 0 -0 -0 -1 -1 -2 -2 -2 -2 -2 -3 -3 -3 -4 -4 -4 -4 -5 -5 -5 -5 -5 -5 -5 -5 -5 -5 -4 -4 -4 -4 -4 -4
1 1 1 1 1 1 0 0 -0 -0 -1 -1 -1 -2 -2 -3 -3 -4 -3 -3 -4 -4 -4 -5 -5 -5 -5 -6 -6 -6 -6 -6 -7 -6 -6 -6 -6 -6 -5 -5 -5 -5 -5
Wind_Speed
6 7 6 7 8 8 7 7 7 6 6 6 6 5 6 7 8 9 10 11 12 11 10 9 9 8 7 6 6 5 4 4 3 3 3 3 3 4 5 5 6 6 7
9 7 7 7 9 11 11 10 9 7 6 6 6 7 8 8 9 11 12 13 13 14 13 12 12 11 10 9 9 8 7 6 6 5 4 4 4 4 4 4 5 5 6
12 10 7 7 10 13 12 10 8 7 5 5 5 8 9 10 11 12 14 14 15 16 16 16 15 14 13 12 11 11 10 9 8 7 7 6 5 4 4 4 4 4 5
14 11 7 7 12 12 10 6 4 5 6 6 6 6 7 9 11 13 14 15 16 17 18 19 18 17 16 15 15 14 13 12 11 10 9 8 7 6 5 5 4 4 3
15 13 9 10 12 9 8 6 6 6 7 8 8 7 6 6 9 11 12 15 18 19 19 21 22 21 20 19 18 17 16 15 14 13 12 11 10 9 8 7 6 5 4
13 12 10 10 10 6 6 7 8 7 7 7 6 7 6 7 6 7 10 13 16 19 20 21 21 22 23 22 21 20 19 18 17 16 15 14 12 11 10 9 8 7 6
10 10 7 7 7 8 9 9 7 8 7 4 3 5 5 7 8 8 7 8 11 17 18 20 20 20 20 23 25 24 22 21 20 19 18 16 15 14 13 12 10 9 8
5 6 6 5 5 7 8 8 7 5 5 5 5 3 4 4 6 8 7 8 9 11 13 18 19 20 21 21 23 26 26 24 22 21 20 19 18 16 15 14 12 11 10
4 4 5 5 4 6 7 8 8 8 7 5 6 6 5 5 4 3 5 7 7 7 7 12 16 19 21 21 22 25 27 26 25 23 22 21 20 18 17 16 14 13 12
4 4 4 4 4 4 6 7 7 7 7 7 5 7 7 4 4 4 3 4 5 7 8 7 11 16 19 20 21 22 25 26 27 25 23 22 21 20 19 18 16 15 13
4 5 5 4 3 4 5 6 6 6 6 7 5 4 6 6 6 6 7 4 3 5 6 6 7 11 16 19 20 21 23 26 27 26 25 23 22 21 20 19 17 15 12
3 5 6 4 4 4 5 5 5 6 6 6 6 5 5 4 5 6 8 6 5 4 4 4 6 8 13 16 19 20 22 25 26 27 26 25 22 20 18 16 14 13 10
3 5 5 4 4 4 5 4 4 4 4 5 5 5 5 6 5 5 6 6 5 3 2 3 4 6 9 11 14 17 20 23 25 27 26 24 22 18 15 13 12 9 7
3 4 5 4 5 5 4 4 3 3 2 2 3 3 2 2 3 3 4 4 6 4 3 5 1 2 4 6 9 12 16 20 23 24 24 22 19 14 12 10 10 8 7
3 4 4 5 5 6 5 4 3 3 2 3 3 2 2 2 2 2 2 3 4 5 4 3 1 2 3 4 6 8 12 16 19 21 21 19 14 11 11 10 9 8 7
4 5 6 6 6 7 7 6 5 5 6 6 5 5 5 4 3 3 2 2 2 3 3 0 1 2 3 3 5 6 8 12 15 17 17 15 13 11 10 9 8 8 9
6 6 6 6 7 8 8 7 7 8 8 8 7 7 7 6 5 5 4 3 3 1 3 1 2 2 3 3 3 2 1 3 5 8 9 9 8 8 8 9 10 10 11
6 6 6 7 8 8 8 8 8 8 9 9 8 8 8 6 7 6 5 5 4 4 2 2 2 3 3 3 3 3 4 4 3 1 1 2 3 5 6 7 8 10 11
6 7 7 8 8 8 8 8 8 9 9 9 9 9 8 8 7 6 6 6 4 4 3 1 2 2 2 2 3 3 4 4 5 5 4 3 2 3 4 6 8 9 10
6 7 7 7 7 8 8 8 8 9 9 9 9 8 8 7 6 6 6 6 5 4 4 3 2 2 2 2 2 2 2 3 3 4 4 4 4 4 5 6 8 9 9
7 6 7 7 7 7 7 7 7 8 8 8 8 8 9 10 11 8 6 5 5 4 4 4 3 3 3 3 3 2 2 2 2 3 2 2 3 4 6 7 9 10 12
7 7 8 7 8 8 11 12 9 7 7 7 7 7 7 9 11 13 13 12 9 6 4 3 3 3 3 3 3 3 2 2 2 2 2 2 2 3 6 9 11 13 14
6 7 7 7 7 8 12 12 12 7 7 6 6 5 5 6 8 6 9 11 12 13 10 4 3 3 2 2 2 2 2 1 1 2 2 3 2 4 7 10 12 13 14
5 5 6 6 5 7 10 11 11 7 6 5 5 5 4 5 4 5 5 6 6 6 7 5 3 1 1 1 0 0 0 1 2 2 1 3 3 3 4 9 11 12 12
4 4 4 5 5 5 7 8 8 4 4 4 4 4 4 4 7 7 5 4 5 5 7 8 7 6 6 5 1 2 1 1 2 2 0 1 3 3 3 3 6 6 6
3 3 3 3 3 3 4 5 6 3 3 3 3 4 6 6 7 6 3 2 3 3 3 4 6 6 6 6 5 1 3 2 2 3 2 1 2 3 4 3 3 6 8
Wind_Direction
201 209 218 224 229 230 230 234 241 249 258 266 266 260 259 258 253 246 244 242 238 234 229 227 225 224 224 223 221 212 206 201 189 175 162 146 132 121 115 109 105 101 94
209 212 220 225 231 232 234 234 237 242 252 259 265 259 254 254 251 246 243 242 239 235 232 232 231 229 228 227 225 220 217 215 211 203 193 178 164 150 135 123 116 109 101
215 216 219 225 233 235 235 238 243 244 249 249 254 256 250 247 244 242 240 238 238 236 233 233 235 232 230 230 229 225 221 220 218 214 209 201 192 181 165 153 138 123 113
220 218 222 229 233 231 226 225 225 236 243 243 249 249 243 241 240 239 236 234 234 234 232 232 234 234 232 231 230 227 223 221 221 220 217 213 209 202 194 185 172 158 141
224 221 227 232 228 223 223 227 226 222 238 241 243 247 241 237 240 237 231 230 230 230 229 230 231 232 231 231 231 229 225 220 219 221 221 218 215 214 210 203 196 193 186
228 225 231 231 221 219 225 224 230 225 233 241 247 252 246 239 235 232 234 232 229 230 229 229 229 231 230 229 230 231 229 222 219 219 221 220 219 220 217 214 212 211 211
232 227 233 229 218 224 229 225 226 232 238 223 238 268 261 239 237 238 231 230 232 231 229 228 228 228 229 228 228 230 230 228 222 219 220 220 220 220 221 222 221 221 221
253 241 239 237 224 230 234 230 221 227 228 190 198 238 282 287 253 239 230 231 236 233 230 230 228 226 226 226 227 227 228 229 227 222 219 220 220 220 222 225 225 225 225
298 277 265 256 245 236 241 236 226 229 242 221 203 214 242 254 279 272 242 238 238 233 235 234 230 230 229 228 227 227 226 226 229 228 224 221 220 221 223 225 227 227 226
336 325 305 285 268 255 250 247 236 232 237 243 218 225 237 241 252 285 264 254 243 241 240 237 234 233 232 232 231 229 227 224 227 231 231 227 223 222 223 225 227 227 227
346 348 336 322 299 279 271 263 253 240 235 241 227 213 231 240 235 253 273 265 269 252 243 236 235 235 233 231 232 232 230 229 231 233 234 234 231 227 226 226 226 225 223
336 351 345 335 318 302 293 282 269 257 247 245 241 219 211 216 217 229 256 257 254 256 246 239 236 237 235 233 233 232 229 230 233 235 235 234 234 234 233 228 225 224 219
336 339 342 333 326 318 310 301 289 279 264 255 251 243 229 232 222 225 251 267 262 255 258 261 250 250 245 239 240 236 232 232 234 236 236 233 231 231 232 229 223 215 210
326 337 344 346 343 339 335 324 318 315 313 296 288 280 261 257 243 235 241 263 279 267 247 257 305 307 289 267 252 243 239 236 236 236 237 234 229 223 218 219 213 206 210
351 4 8 7 6 4 359 359 11 3 14 16 8 5 355 347 344 307 273 251 263 280 276 245 271 353 324 293 265 245 239 237 236 236 238 235 224 213 211 210 214 221 229
22 25 28 28 26 22 19 28 30 29 43 37 33 39 36 20 19 12 354 323 271 265 275 337 351 347 322 307 283 258 242 240 238 237 236 230 216 208 199 203 219 232 243
36 40 40 42 40 36 34 44 46 45 52 48 43 48 42 34 35 26 21 19 10 333 279 345 40 353 342 341 351 354 271 239 242 241 238 224 205 203 209 219 233 244 252
46 47 48 52 50 46 44 50 55 54 56 55 48 48 40 39 40 32 32 29 19 9 348 322 11 5 4 5 19 35 43 50 52 25 285 238 219 223 230 235 245 252 256
57 54 56 57 55 53 54 56 63 64 61 57 53 51 43 44 44 37 37 32 20 19 19 41 23 21 10 16 32 39 44 37 42 38 31 17 347 308 278 264 262 264 266
65 60 60 63 65 63 61 61 65 66 65 59 53 50 46 47 49 44 40 28 24 28 28 40 36 30 25 16 34 33 36 33 30 29 25 12 355 342 320 303 292 286 282
67 63 64 63 65 69 68 67 65 68 67 62 53 46 46 48 52 55 53 37 34 36 33 35 32 27 25 19 21 16 29 25 29 22 7 0 348 330 316 306 296 287 279
69 65 62 61 61 68 75 78 78 67 65 62 52 39 38 41 45 46 50 48 47 46 38 37 31 35 20 13 12 21 26 28 359 13 5 319 310 288 285 283 281 277 273
75 68 59 59 60 69 77 79 79 74 66 59 51 41 38 36 48 40 43 44 41 45 51 67 55 33 13 356 13 19 25 27 305 315 357 296 304 283 282 284 286 280 273
81 75 63 55 54 63 77 81 82 74 66 54 45 40 34 14 37 56 51 39 29 28 40 52 72 12 328 300 115 136 134 356 300 281 201 274 299 283 288 294 298 290 276
90 81 68 55 47 37 68 87 90 76 63 41 24 23 26 6 19 43 58 38 19 3 17 24 22 12 3 353 350 108 70 29 320 298 264 252 302 303 294 298 316 327 326
115 100 73 50 35 7 40 87 103 96 69 34 12 5 8 7 7 21 80 39 355 331 349 357 1 360 2 5 22 105 167 169 230 286 287 246 301 338 322 299 292 307 313
Height
1566 1566 1567 1568 1569 1570 1571 1571 1572 1572 1572 1572 1572 1572 1572 1573 1573 1573 1573 1573 1573 1573 1573 1572 1571 1570 1570 1569 1569 1568 1568 1568 1567 1567 1567 1567 1567 1567 1567 1567 1567 1567 1567
1564 1565 1566 1566 1567 1568 1569 1569 1569 1569 1569 1569 1570 1570 1570 1570 1570 1570 1570 1570 1570 1570 1570 1570 1569 1569 1568 1567 1567 1566 1566 1566 1566 1566 1566 1566 1566 1566 1566 1567 1567 1567 1567
1562 1563 1564 1564 1565 1566 1566 1566 1567 1566 1566 1566 1566 1567 1567 1567 1566 1566 1566 1566 1567 1567 1567 1567 1567 1566 1566 1565 1565 1564 1564 1564 1564 1564 1564 1564 1564 1565 1565 1565 1565 1566 1566
1560 1560 1561 1561 1563 1563 1563 1563 1563 1563 1563 1562 1562 1563 1563 1563 1562 1562 1562 1562 1562 1563 1563 1563 1563 1563 1563 1562 1562 1562 1561 1561 1561 1561 1562 1562 1562 1563 1563 1563 1564 1564 1564
1556 1557 1557 1558 1559 1559 1559 1559 1559 1559 1558 1558 1558 1558 1558 1558 1558 1558 1557 1557 1557 1558 1558 1558 1558 1559 1559 1559 1559 1559 1558 1558 1558 1558 1559 1559 1559 1560 1560 1561 1561 1562 1562
1552 1553 1553 1553 1554 1554 1554 1554 1554 1554 1554 1553 1553 1552 1552 1552 1552 1552 1552 1552 1552 1552 1552 1552 1553 1553 1554 1554 1554 1554 1554 1554 1554 1554 1555 1555 1556 1557 1557 1558 1558 1559 1560
1548 1548 1548 1549 1549 1549 1549 1549 1549 1548 1548 1548 1547 1545 1544 1544 1544 1545 1545 1545 1545 1546 1546 1546 1546 1547 1547 1548 1549 1549 1550 1550 1550 1550 1550 1551 1552 1553 1553 1554 1555 1556 1557
1543 1543 1543 1543 1543 1543 1543 1544 1543 1543 1542 1543 1542 1540 1538 1537 1536 1537 1538 1538 1539 1539 1539 1539 1540 1540 1541 1541 1542 1543 1544 1544 1545 1545 1545 1546 1547 1548 1549 1550 1551 1552 1553
1538 1537 1537 1537 1537 1537 1537 1537 1538 1537 1536 1537 1537 1537 1534 1530 1530 1530 1531 1532 1532 1532 1532 1533 1533 1533 1534 1534 1534 1535 1537 1538 1539 1540 1541 1541 1542 1543 1544 1545 1547 1548 1549
1532 1531 1531 1531 1531 1530 1530 1530 1531 1530 1530 1530 1530 1530 1530 1528 1526 1523 1524 1525 1526 1526 1526 1526 1525 1525 1526 1526 1526 1527 1529 1530 1532 1533 1535 1536 1537 1537 1539 1540 1542 1544 1545
1526 1525 1525 1524 1524 1524 1523 1523 1524 1524 1523 1523 1523 1523 1523 1522 1521 1519 1516 1517 1518 1519 1519 1519 1518 1518 1518 1518 1518 1519 1520 1522 1524 1525 1527 1529 1530 1532 1533 1535 1537 1538 1540
1520 1519 1519 1518 1518 1517 1517 1517 1517 1517 1517 1517 1517 1516 1516 1516 1515 1514 1511 1510 1510 1511 1512 1512 1511 1511 1510 1510 1510 1510 1512 1513 1515 1517 1519 1521 1523 1525 1527 1529 1530 1532 1533
1515 1514 1513 1512 1512 1511 1511 1510 1510 1510 1510 1510 1510 1510 1510 1510 1510 1509 1507 1505 1503 1503 1504 1504 1505 1504 1503 1503 1502 1502 1503 1504 1506 1508 1510 1513 1515 1517 1520 1521 1523 1525 1526
1510 1509 1508 1507 1507 1506 1505 1505 1504 1504 1504 1504 1504 1504 1504 1504 1504 1503 1502 1501 1498 1497 1497 1497 1497 1497 1496 1495 1495 1495 1496 1497 1498 1500 1502 1505 1508 1509 1512 1515 1516 1518 1520
1506 1505 1504 1503 1502 1501 1501 1500 1500 1499 1499 1499 1499 1499 1499 1498 1498 1498 1497 1496 1496 1492 1491 1491 1491 1490 1490 1489 1488 1488 1488 1490 1491 1492 1495 1498 1500 1502 1505 1508 1510 1512 1513
1502 1501 1500 1499 1498 1497 1497 1496 1496 1495 1495 1495 1494 1494 1494 1493 1493 1492 1492 1491 1490 1489 1487 1486 1486 1485 1484 1483 1482 1481 1482 1483 1485 1486 1489 1492 1494 1496 1499 1501 1504 1505 1506
1499 1498 1497 1496 1495 1494 1494 1493 1493 1492 1492 1491 1491 1490 1490 1489 1488 1488 1487 1486 1485 1484 1483 1482 1481 1479 1478 1478 1477 1476 1477 1478 1480 1482 1484 1487 1489 1491 1493 1495 1497 1499 1500
1496 1495 1494 1494 1493 1492 1491 1491 1490 1489 1489 1488 1487 1487 1486 1486 1485 1484 1483 1482 1481 1480 1479 1478 1477 1475 1475 1474 1473 1473 1474 1475 1477 1478 1481 1483 1485 1487 1488 1490 1491 1492 1493
1493 1493 1492 1492 1491 1490 1489 1488 1488 1487 1486 1486 1485 1484 1484 1483 1482 1481 1481 1480 1479 1477 1476 1475 1474 1473 1472 1471 1471 1471 1472 1473 1474 1476 1477 1479 1481 1482 1483 1484 1485 1486 1486
1491 1490 1490 1489 1489 1488 1487 1487 1486 1485 1484 1484 1483 1483 1482 1481 1480 1479 1479 1477 1476 1475 1474 1473 1472 1471 1470 1470 1470 1470 1470 1471 1471 1472 1474 1475 1476 1477 1478 1478 1478 1479 1479
1489 1489 1488 1488 1487 1487 1486 1486 1485 1484 1484 1483 1482 1482 1481 1480 1479 1478 1477 1476 1475 1474 1473 1472 1471 1470 1469 1468 1468 1468 1468 1468 1468 1469 1469 1470 1470 1471 1471 1471 1471 1471 1471
1487 1487 1487 1487 1487 1486 1486 1485 1484 1484 1483 1482 1482 1481 1480 1479 1478 1477 1476 1474 1473 1472 1470 1470 1469 1468 1467 1467 1466 1466 1465 1465 1465 1465 1464 1465 1465 1464 1464 1464 1464 1464 1464
1487 1487 1487 1487 1486 1486 1485 1485 1484 1483 1482 1482 1481 1480 1479 1478 1476 1475 1474 1472 1471 1470 1469 1468 1467 1466 1465 1464 1464 1463 1462 1462 1461 1460 1460 1459 1460 1459 1458 1457 1457 1457 1458
1487 1487 1487 1487 1486 1486 1485 1484 1484 1483 1482 1480 1479 1478 1477 1476 1474 1473 1471 1470 1469 1467 1466 1465 1464 1463 1462 1462 1461 1461 1459 1459 1458 1457 1456 1455 1454 1454 1453 1452 1451 1451 1452
1486 1487 1487 1487 1486 1486 1485 1484 1483 1482 1480 1479 1478 1476 1475 1474 1472 1470 1469 1468 1466 1465 1464 1463 1462 1461 1460 1459 1458 1458 1457 1456 1455 1454 1453 1452 1450 1449 1448 1448 1447 1447 1447
1486 1486 1486 1486 1486 1485 1484 1483 1482 1480 1479 1477 1476 1474 1473 1471 1470 1468 1467 1465 1464 1463 1462 1460 1460 1458 1457 1456 1455 1455 1454 1453 1452 1451 1450 1449 1448 1447 1445 1444 1443 1443 1443